Location: Unspecified
(49.2170°N, 0.0000°E)
Time: 04:55:10
(UTC+00:00)

Vanguard 1 - Pass Details

Date: 27 January 2021
Orbit: 649 x 3834 km, 34.2° (Epoch: 08 March)

Event Time Altitude Azimuth Distance (km) Brightness Sun altitude
Rises 20:19:48 0° 278° (W) 7,977 15.8 -34.3°
Reaches altitude 10° 20:32:27 10° 251° (WSW) 6,614 14.8 -36.3°
Maximum altitude 20:36:49 11° 239° (WSW) 6,294 14.5 -37.0°
Drops below altitude 10° 20:40:56 10° 227° (SW) 6,110 14.3 -37.6°
Sets 20:50:46 0° 196° (SSW) 6,271 14.2 -39.1°
